Fort Irwin, CA

6:47 AM PST on February 23, 2017 (GMT -0800)
Fort Irwin/Barstow, Bicycle L

Weather History for KBYS - March, 2014

Change the Weather History Date:

Tuesday, March 11, 2014

  Actual Average (KDAG) Record (KDAG)
Temperature  
Mean Temperature 58 °F -  
Max Temperature 63 °F 67 °F 88 °F (1997)
Min Temperature 53 °F 45 °F 30 °F (1948)
Degree Days  
Heating Degree Days 7    
Growing Degree Days 8 (Base 50)    
Moisture  
Dew Point 15 °F    
Average Humidity 19    
Maximum Humidity 38    
Minimum Humidity 13    
Precipitation  
Precipitation 0.00 in - - ()
Sea Level Pressure  
Sea Level Pressure 30.04 in    
Wind  
Wind Speed 14 mph (North)    
Max Wind Speed 24 mph    
Max Gust Speed 39 mph    
Visibility 10 miles    
Events      
Averages and records for this station are not official NWS values.
T = Trace of Precipitation, MM = Missing Value Source: NWS Daily Summary

Daily Weather History Graph

Daily Weather History Graph

Search for Another Location

Airport or City:

Trip Planner

Search our weather history database for the weather conditions in past years. The results will help you decide how hot, cold, wet, or windy it might be!

Date:

Astronomy

Mar. 11, 2014 Rise Set
Actual Time 7:02 AM PDT 6:50 PM PDT
Civil Twilight 6:37 AM PDT 7:16 PM PDT
Nautical Twilight 6:07 AM PDT 7:45 PM PDT
Astronomical Twilight 5:38 AM PDT 8:15 PM PDT
Moon 2:38 PM PDT (3/11) 3:51 AM PDT (3/11)
Length of Visible Light 12h 38m
Length of Day
11h 48m
Waxing Gibbous, 79% of the Moon is Illuminated
Mar 11
Waxing Gibbous
Mar 16
Full
Mar 23
Last Quarter
Mar 30
New
Apr 7
First Quarter

Hourly Weather History & Observations

Time (PDT) Temp. Dew Point Humidity Pressure Visibility Wind Dir Wind Speed Gust Speed Precip Events Conditions
12:55 AM 57.6 °F 32.0 °F 38% 29.96 in 10.0 mi West 6.9 mph 19.6 mph N/A   Clear
1:55 AM 59.0 °F 26.6 °F 29% 29.96 in 10.0 mi NNW 8.1 mph - N/A   Clear
2:55 AM 58.3 °F 21.2 °F 24% 29.96 in 10.0 mi North 6.9 mph - N/A   Partly Cloudy
3:55 AM 57.9 °F 17.6 °F 21% 29.95 in 10.0 mi NNE 12.7 mph 24.2 mph N/A   Clear
4:55 AM 55.6 °F 17.6 °F 23% 29.98 in 10.0 mi NNW 11.5 mph 24.2 mph N/A   Clear
5:55 AM 54.9 °F 17.8 °F 23% 30.01 in 10.0 mi NNE 20.7 mph 31.1 mph N/A   Clear
6:55 AM 53.2 °F 16.7 °F 24% 30.04 in 10.0 mi NNE 21.9 mph 27.6 mph N/A   Clear
7:55 AM 54.1 °F 16.5 °F 23% 30.06 in 10.0 mi North 10.4 mph 21.9 mph N/A   Clear
8:55 AM 55.9 °F 16.3 °F 21% 30.08 in 10.0 mi NNE 21.9 mph 34.5 mph N/A   Clear
9:55 AM 58.8 °F 16.3 °F 19% 30.09 in 10.0 mi NNW 19.6 mph 39.1 mph N/A   Clear
10:55 AM 60.3 °F 16.7 °F 18% 30.10 in 10.0 mi NNW 15.0 mph 25.3 mph N/A   Clear
11:55 AM 61.9 °F 16.5 °F 17% 30.09 in 10.0 mi North 19.6 mph 29.9 mph N/A   Clear
12:55 PM 61.5 °F 16.3 °F 17% 30.07 in 10.0 mi NNE 18.4 mph 27.6 mph N/A   Clear
1:55 PM 62.8 °F 15.1 °F 16% 30.04 in 10.0 mi NNW 24.2 mph 31.1 mph N/A   Clear
2:55 PM 62.1 °F 15.1 °F 16% 30.04 in 10.0 mi NNW 19.6 mph 27.6 mph N/A   Clear
3:55 PM 63.7 °F 13.8 °F 14% 30.03 in 10.0 mi NNW 18.4 mph 23.0 mph N/A   Clear
4:55 PM 61.7 °F 13.1 °F 15% 30.04 in 10.0 mi North 13.8 mph 19.6 mph N/A   Clear
5:55 PM 60.8 °F 11.3 °F 14% 30.02 in 10.0 mi North 20.7 mph 31.1 mph N/A   Clear
6:55 PM 59.4 °F 9.5 °F 14% 30.04 in 10.0 mi North 20.7 mph 27.6 mph N/A   Clear
7:55 PM 57.9 °F 9.3 °F 15% 30.06 in 10.0 mi NNW 17.3 mph 23.0 mph N/A   Clear
8:55 PM 55.8 °F 5.2 °F 13% 30.07 in 10.0 mi North 15.0 mph 24.2 mph N/A   Clear
9:55 PM 54.9 °F 4.1 °F 13% 30.08 in 10.0 mi North 16.1 mph 21.9 mph N/A   Clear
10:55 PM 54.1 °F 4.5 °F 13% 30.08 in 10.0 mi North 12.7 mph 21.9 mph N/A   Clear
11:55 PM 54.5 °F 7.2 °F 15% 30.08 in 10.0 mi NNW 17.3 mph 32.2 mph N/A   Clear